LOT1544 LOWW-LOWI

Flight info

Callsign LOT1544
Flight time 0h 47m
Altitude 30000
Route SOVIL DCT SITNI DCT BAGSI DCT NANIT NANIT2A
Aircraft B738/M-SDE2E3FGHIRWXY/LB1

Departure

Time 2026-04-21 02:28
Airport Vienna International Airport (LOWW)

Arrival

Time 2026-04-21 03:15
Airport Innsbruck Airport (LOWI)
Time Latitude Longitude Altitude Speed Heading
2026-04-21 02:01 48.11545 16.56797 601 ft 0 kts 205°
2026-04-21 02:16 48.11556 16.56804 601 ft 2 kts 205°
2026-04-21 02:17 48.11571 16.56815 601 ft 2 kts 206°
2026-04-21 02:17 48.11586 16.56826 601 ft 2 kts 207°
2026-04-21 02:17 48.11601 16.56836 600 ft 2 kts 166°
2026-04-21 02:17 48.11610 16.56826 600 ft 1 kts 116°
2026-04-21 02:19 48.11607 16.56836 600 ft 3 kts 116°
2026-04-21 02:20 48.11572 16.56906 601 ft 11 kts 146°
2026-04-21 02:20 48.11539 16.56918 601 ft 7 kts 183°
2026-04-21 02:20 48.11487 16.56891 602 ft 12 kts 203°
2026-04-21 02:20 48.11424 16.56907 602 ft 8 kts 135°
2026-04-21 02:21 48.11389 16.57006 608 ft 11 kts 117°
2026-04-21 02:21 48.11357 16.57105 612 ft 17 kts 116°
2026-04-21 02:21 48.11305 16.57264 614 ft 21 kts 116°
2026-04-21 02:21 48.11225 16.57510 613 ft 27 kts 115°
2026-04-21 02:22 48.11145 16.57753 613 ft 22 kts 115°
2026-04-21 02:22 48.11127 16.57868 602 ft 4 kts 49°
2026-04-21 02:22 48.11153 16.57881 601 ft 8 kts 358°
2026-04-21 02:22 48.11244 16.57848 603 ft 17 kts 345°
2026-04-21 02:23 48.11388 16.57790 619 ft 20 kts 345°
2026-04-21 02:23 48.11483 16.57724 612 ft 17 kts 306°
2026-04-21 02:23 48.11477 16.57635 614 ft 4 kts 208°
2026-04-21 02:23 48.11400 16.57643 611 ft 16 kts 163°
2026-04-21 02:24 48.11312 16.57680 609 ft 24 kts 164°
2026-04-21 02:24 48.11108 16.57766 604 ft 33 kts 164°
2026-04-21 02:24 48.10930 16.57964 603 ft 34 kts 148°
2026-04-21 02:24 48.10698 16.58079 603 ft 37 kts 165°
2026-04-21 02:25 48.10435 16.58191 601 ft 40 kts 164°
2026-04-21 02:25 48.10253 16.58266 600 ft 37 kts 164°
2026-04-21 02:25 48.10041 16.58230 603 ft 20 kts 190°
2026-04-21 02:25 48.09909 16.58274 613 ft 21 kts 163°
2026-04-21 02:26 48.09788 16.58326 612 ft 25 kts 164°
2026-04-21 02:26 48.09610 16.58400 614 ft 30 kts 165°
2026-04-21 02:26 48.09355 16.58507 600 ft 35 kts 163°
2026-04-21 02:26 48.09092 16.58617 596 ft 39 kts 165°
2026-04-21 02:27 48.08921 16.58813 596 ft 26 kts 99°
2026-04-21 02:27 48.08926 16.58891 595 ft 6 kts 77°
2026-04-21 02:27 48.08935 16.58932 595 ft 6 kts 65°
2026-04-21 02:27 48.08974 16.59006 596 ft 14 kts 39°
2026-04-21 02:28 48.09149 16.59015 596 ft 60 kts 345°
2026-04-21 02:28 48.09628 16.58810 599 ft 131 kts 344°
2026-04-21 02:28 48.11063 16.58204 1201 ft 193 kts 343°
2026-04-21 02:28 48.12400 16.57608 2411 ft 201 kts 343°
2026-04-21 02:29 48.13834 16.56991 3842 ft 199 kts 338°
2026-04-21 02:29 48.14969 16.55675 4502 ft 218 kts 302°
2026-04-21 02:29 48.15397 16.53416 5411 ft 227 kts 270°
2026-04-21 02:29 48.14906 16.51148 6464 ft 234 kts 237°
2026-04-21 02:30 48.13650 16.49433 7428 ft 244 kts 220°
2026-04-21 02:30 48.12206 16.47962 8302 ft 251 kts 219°
2026-04-21 02:30 48.10743 16.46482 9228 ft 256 kts 219°
2026-04-21 02:30 48.09706 16.45396 9883 ft 258 kts 224°
2026-04-21 02:31 48.08530 16.43339 10729 ft 256 kts 240°
2026-04-21 02:31 48.07520 16.41197 11572 ft 260 kts 239°
2026-04-21 02:31 48.06435 16.38953 12419 ft 265 kts 238°
2026-04-21 02:31 48.05317 16.36676 13304 ft 269 kts 238°
2026-04-21 02:32 48.04173 16.34354 14160 ft 274 kts 239°
2026-04-21 02:32 48.03389 16.31868 14908 ft 268 kts 261°
2026-04-21 02:32 48.03242 16.29055 15792 ft 265 kts 274°
2026-04-21 02:32 48.03285 16.26258 16622 ft 267 kts 275°
2026-04-21 02:33 48.03354 16.23440 17415 ft 270 kts 275°
2026-04-21 02:33 48.03423 16.20605 18252 ft 272 kts 275°
2026-04-21 02:33 48.03487 16.17769 19003 ft 274 kts 275°
2026-04-21 02:33 48.03547 16.14897 19694 ft 277 kts 275°
2026-04-21 02:34 48.03636 16.10210 20797 ft 283 kts 275°
2026-04-21 02:34 48.03742 16.04111 22184 ft 290 kts 275°
2026-04-21 02:34 48.03836 15.98233 23464 ft 297 kts 275°
2026-04-21 02:34 48.03901 15.93950 24274 ft 301 kts 275°
2026-04-21 02:35 48.03996 15.87403 25570 ft 302 kts 275°
2026-04-21 02:35 48.04086 15.80957 26761 ft 305 kts 274°
2026-04-21 02:35 48.04160 15.75471 27731 ft 308 kts 274°
2026-04-21 02:35 48.04206 15.72008 28319 ft 310 kts 274°
2026-04-21 02:36 48.04247 15.68731 28873 ft 312 kts 274°
2026-04-21 02:36 48.04279 15.66216 29294 ft 313 kts 274°
2026-04-21 02:36 48.04327 15.62276 29955 ft 315 kts 274°
2026-04-21 02:36 48.04371 15.58703 30045 ft 327 kts 274°
2026-04-21 02:37 48.04401 15.56213 30093 ft 335 kts 274°
2026-04-21 02:37 48.04442 15.52626 30080 ft 347 kts 273°
2026-04-21 02:37 48.04485 15.48917 30084 ft 358 kts 273°
2026-04-21 02:37 48.04526 15.45150 30092 ft 369 kts 273°
2026-04-21 02:38 48.04567 15.41200 30080 ft 378 kts 273°
2026-04-21 02:38 48.04663 15.33161 30091 ft 394 kts 273°
2026-04-21 02:39 48.04802 15.24903 30070 ft 397 kts 273°
2026-04-21 02:39 48.04938 15.16565 30066 ft 397 kts 273°
2026-04-21 02:40 48.05063 15.08281 30069 ft 395 kts 273°
2026-04-21 02:40 48.05190 14.99346 30064 ft 391 kts 273°
2026-04-21 02:41 48.05285 14.92424 30069 ft 390 kts 273°
2026-04-21 02:41 48.05393 14.84111 30066 ft 389 kts 273°
2026-04-21 02:42 48.05478 14.75601 30066 ft 389 kts 272°
2026-04-21 02:42 48.05548 14.67115 30066 ft 390 kts 272°
2026-04-21 02:43 48.05610 14.59063 30076 ft 390 kts 272°
2026-04-21 02:43 48.05662 14.51836 30084 ft 391 kts 272°
2026-04-21 02:44 48.05717 14.43691 30085 ft 392 kts 272°
2026-04-21 02:44 48.05767 14.35173 30091 ft 392 kts 272°
2026-04-21 02:45 48.05171 14.28425 30094 ft 397 kts 259°
2026-04-21 02:45 48.03006 14.20240 30095 ft 402 kts 248°
2026-04-21 02:46 48.00376 14.12437 30092 ft 402 kts 248°
2026-04-21 02:46 47.97868 14.05016 30086 ft 400 kts 248°
2026-04-21 02:47 47.95660 13.98433 30085 ft 398 kts 248°
2026-04-21 02:47 47.93109 13.90808 30082 ft 396 kts 248°
2026-04-21 02:48 47.90607 13.83337 30081 ft 395 kts 248°
2026-04-21 02:48 47.88006 13.75589 30084 ft 393 kts 248°
2026-04-21 02:49 47.85884 13.69286 30089 ft 392 kts 249°
2026-04-21 02:49 47.83211 13.61369 30084 ft 391 kts 249°
2026-04-21 02:50 47.81061 13.55017 30091 ft 390 kts 249°
2026-04-21 02:50 47.78607 13.47800 30077 ft 378 kts 249°
2026-04-21 02:51 47.76197 13.40717 30094 ft 378 kts 249°
2026-04-21 02:51 47.74982 13.37151 29710 ft 379 kts 249°
2026-04-21 02:51 47.73801 13.33698 29283 ft 372 kts 249°
2026-04-21 02:51 47.72636 13.30294 28818 ft 366 kts 249°
2026-04-21 02:52 47.71487 13.26945 28360 ft 362 kts 249°
2026-04-21 02:52 47.70339 13.23600 27906 ft 357 kts 249°
2026-04-21 02:52 47.69185 13.20238 27399 ft 354 kts 249°
2026-04-21 02:52 47.68058 13.16957 26951 ft 351 kts 249°
2026-04-21 02:53 47.66949 13.13734 26468 ft 349 kts 249°
2026-04-21 02:53 47.66220 13.11615 26172 ft 347 kts 249°
2026-04-21 02:53 47.64920 13.07845 25664 ft 343 kts 249°
2026-04-21 02:53 47.63834 13.04701 25213 ft 342 kts 249°
2026-04-21 02:54 47.62683 13.01371 24752 ft 340 kts 249°
2026-04-21 02:54 47.61557 12.98116 24286 ft 339 kts 249°
2026-04-21 02:54 47.60450 12.94925 23842 ft 337 kts 248°
2026-04-21 02:54 47.59278 12.91548 23309 ft 336 kts 248°
2026-04-21 02:55 47.58575 12.89524 22966 ft 335 kts 248°
2026-04-21 02:55 47.57531 12.86526 22517 ft 331 kts 248°
2026-04-21 02:55 47.56459 12.83454 22106 ft 329 kts 248°
2026-04-21 02:55 47.55530 12.80787 21713 ft 328 kts 248°
2026-04-21 02:56 47.54488 12.77797 21256 ft 325 kts 248°
2026-04-21 02:56 47.52444 12.71949 20451 ft 320 kts 248°
2026-04-21 02:56 47.51397 12.68957 20010 ft 319 kts 248°
2026-04-21 02:57 47.50432 12.66205 19620 ft 317 kts 248°
2026-04-21 02:57 47.49251 12.62836 19147 ft 317 kts 248°
2026-04-21 02:57 47.48218 12.59895 18718 ft 316 kts 248°
2026-04-21 02:57 47.47208 12.57017 18339 ft 323 kts 247°
2026-04-21 02:58 47.46193 12.54129 17832 ft 329 kts 247°
2026-04-21 02:58 47.45108 12.51051 17372 ft 327 kts 247°
2026-04-21 02:58 47.44104 12.48212 16967 ft 322 kts 246°
2026-04-21 02:58 47.43004 12.45101 16548 ft 317 kts 246°
2026-04-21 02:59 47.42011 12.42301 16568 ft 295 kts 247°
2026-04-21 02:59 47.41386 12.40552 16566 ft 277 kts 247°
2026-04-21 02:59 47.40541 12.38176 16372 ft 256 kts 248°
2026-04-21 02:59 47.39735 12.35871 16223 ft 233 kts 253°
2026-04-21 03:00 47.39430 12.33550 16130 ft 209 kts 274°
2026-04-21 03:00 47.39509 12.31374 15142 ft 230 kts 277°
2026-04-21 03:00 47.39725 12.28891 14617 ft 235 kts 280°
2026-04-21 03:00 47.39981 12.26483 14102 ft 235 kts 281°
2026-04-21 03:01 47.40244 12.24021 13438 ft 235 kts 280°
2026-04-21 03:01 47.40488 12.21652 12823 ft 234 kts 280°
2026-04-21 03:01 47.40724 12.19283 12563 ft 218 kts 279°
2026-04-21 03:01 47.40933 12.17134 12273 ft 207 kts 279°
2026-04-21 03:02 47.41137 12.15019 12005 ft 198 kts 279°
2026-04-21 03:02 47.41328 12.13013 11719 ft 191 kts 279°
2026-04-21 03:02 47.41508 12.11107 11451 ft 184 kts 279°
2026-04-21 03:02 47.41673 12.09351 11187 ft 177 kts 279°
2026-04-21 03:03 47.41841 12.07560 10916 ft 172 kts 279°
2026-04-21 03:03 47.42006 12.05800 10675 ft 170 kts 279°
2026-04-21 03:03 47.42168 12.04058 10442 ft 171 kts 279°
2026-04-21 03:03 47.42315 12.02473 10199 ft 173 kts 279°
2026-04-21 03:04 47.42409 12.01453 10061 ft 172 kts 279°
2026-04-21 03:04 47.42605 11.99302 9740 ft 170 kts 279°
2026-04-21 03:04 47.42716 11.98092 9584 ft 173 kts 279°
2026-04-21 03:04 47.42890 11.96203 9518 ft 178 kts 279°
2026-04-21 03:05 47.42970 11.94130 9469 ft 179 kts 257°
2026-04-21 03:05 47.42350 11.92538 9517 ft 178 kts 239°
2026-04-21 03:05 47.41821 11.91390 9520 ft 180 kts 240°
2026-04-21 03:05 47.41065 11.89749 9506 ft 180 kts 239°
2026-04-21 03:06 47.40343 11.88200 9479 ft 177 kts 239°
2026-04-21 03:06 47.39672 11.86772 9478 ft 174 kts 239°
2026-04-21 03:06 47.38937 11.85208 9503 ft 179 kts 239°
2026-04-21 03:06 47.38210 11.83665 9499 ft 181 kts 239°
2026-04-21 03:07 47.37511 11.82064 9379 ft 180 kts 247°
2026-04-21 03:07 47.37055 11.80517 9152 ft 181 kts 250°
2026-04-21 03:07 47.36492 11.78438 8804 ft 182 kts 250°
2026-04-21 03:07 47.36160 11.77211 8601 ft 179 kts 250°
2026-04-21 03:08 47.35660 11.75370 8269 ft 174 kts 250°
2026-04-21 03:08 47.35204 11.73702 7995 ft 172 kts 250°
2026-04-21 03:08 47.34735 11.71989 7737 ft 174 kts 250°
2026-04-21 03:08 47.34280 11.70333 7480 ft 175 kts 249°
2026-04-21 03:09 47.33811 11.68634 7201 ft 174 kts 249°
2026-04-21 03:09 47.33362 11.67011 6942 ft 173 kts 249°
2026-04-21 03:09 47.32882 11.65276 6664 ft 173 kts 248°
2026-04-21 03:09 47.32425 11.63631 6399 ft 173 kts 248°
2026-04-21 03:10 47.31964 11.61975 6118 ft 173 kts 248°
2026-04-21 03:10 47.31500 11.60306 5844 ft 173 kts 248°
2026-04-21 03:10 47.31043 11.58665 5532 ft 174 kts 248°
2026-04-21 03:10 47.30732 11.57551 5361 ft 174 kts 248°
2026-04-21 03:11 47.30365 11.56234 5141 ft 175 kts 248°
2026-04-21 03:11 47.30088 11.55242 4980 ft 175 kts 249°
2026-04-21 03:11 47.29624 11.53578 4738 ft 175 kts 249°
2026-04-21 03:11 47.29148 11.51875 4505 ft 175 kts 248°
2026-04-21 03:12 47.28679 11.50201 4276 ft 175 kts 248°
2026-04-21 03:12 47.28363 11.49074 4086 ft 175 kts 248°
2026-04-21 03:12 47.27825 11.47157 3737 ft 161 kts 248°
2026-04-21 03:12 47.27406 11.45668 3525 ft 139 kts 248°
2026-04-21 03:13 47.27081 11.44341 3244 ft 128 kts 259°
2026-04-21 03:13 47.26978 11.43444 3070 ft 124 kts 262°
2026-04-21 03:13 47.26838 11.42105 2891 ft 124 kts 262°
2026-04-21 03:13 47.26706 11.40849 2705 ft 120 kts 261°
2026-04-21 03:14 47.26570 11.39566 2494 ft 118 kts 261°
2026-04-21 03:14 47.26439 11.38335 2263 ft 116 kts 260°
2026-04-21 03:14 47.26310 11.37141 2091 ft 113 kts 260°
2026-04-21 03:14 47.26188 11.35982 1982 ft 115 kts 262°
2026-04-21 03:15 47.26070 11.34824 1917 ft 102 kts 260°
2026-04-21 03:15 47.25991 11.34085 1904 ft 75 kts 261°
2026-04-21 03:15 47.25941 11.33717 1907 ft 10 kts 234°
2026-04-21 03:15 47.25912 11.33700 1914 ft 4 kts 167°
2026-04-21 03:16 47.25865 11.33768 1901 ft 14 kts 128°
2026-04-21 03:16 47.25809 11.33881 1904 ft 14 kts 126°
2026-04-21 03:16 47.25770 11.33999 1897 ft 16 kts 98°
2026-04-21 03:16 47.25781 11.34166 1888 ft 17 kts 79°
2026-04-21 03:17 47.25799 11.34324 1900 ft 17 kts 82°
2026-04-21 03:17 47.25822 11.34532 1890 ft 22 kts 81°
2026-04-21 03:17 47.25845 11.34762 1895 ft 16 kts 82°
2026-04-21 03:17 47.25853 11.34851 1897 ft 18 kts 82°
2026-04-21 03:18 47.25866 11.35006 1890 ft 18 kts 91°
2026-04-21 03:18 47.25823 11.35084 1893 ft 0 kts 173°
2026-04-21 03:18 47.25821 11.35085 1894 ft 0 kts 168°